[[{"header":{"parameterUnit":"m.s-1","parameterCategory":1,"la1":30.2992,"la2":30.254,"lo1":-89.0895,"lo2":-89.0443,"dy":0.0025,"dx":0.0025,"nx":19,"ny":19,"refTime":"2026-03-26T21:00:00:Z","depth":0,"parameterNumber":2,"parameterNumberName":"U-component_of_WINDS"},"data":[0,0,0,-2.1741,-2.1743,-2.1846,-2.1846,-2.1981,-2.1982,0,0,0,0,0,0,0,0,0,0,0,-2.1714,-2.1715,-2.1741,-2.1743,-2.1846,-2.1846,-2.1981,-2.1982,0,0,0,0,0,0,0,0,0,0,0,-2.1713,-2.1715,-2.1716,-2.1744,-2.1846,-2.1846,-2.198,-2.1902,0,0,0,0,0,0,0,0,0,0,-2.1801,-2.178,-2.1714,-2.1716,-2.1745,-2.1846,-2.1846,-2.1898,-2.1906,-2.1936,0,-2.1965,0,-2.1975,-2.1991,-2.1992,0,0,0,-2.1741,-2.1773,-2.1797,-2.1716,-2.1745,-2.1845,-2.1799,-2.1903,-2.1912,-2.1948,-2.1966,-2.1971,-2.1978,-2.1992,-2.1993,-2.2175,-2.2176,0,0,-2.1735,-2.1734,-2.179,-2.1804,-2.1789,-2.1796,-2.1802,-2.1908,-2.1928,-2.1967,-2.1974,-2.198,-2.1993,-2.1994,-2.2174,-2.2175,0,0,0,-2.1721,-2.173,-2.1752,-2.1798,-2.1817,-2.1799,-2.1806,-2.1923,-2.1931,-2.1976,-2.1982,-2.1994,-2.1996,-2.2173,-2.2175,-2.2222,0,0,0,-2.1717,-2.1722,-2.175,-2.175,-2.1815,-2.1872,-2.1819,-2.1923,-2.1935,-2.1981,-2.1994,-2.1997,-2.2172,-2.2174,-2.2219,-2.2245,0,0,0,-2.1706,-2.172,-2.1736,-2.175,-2.1794,-2.187,-2.1883,-2.1926,-2.1939,-2.1992,-2.1997,-2.2171,-2.2174,-2.2215,-2.224,-2.2293,0,0,0,-2.1694,-2.1777,-2.1737,-2.1832,-2.1793,-2.1898,-2.1882,-2.1961,-2.2012,-2.1995,-2.2172,-2.2174,-2.2214,-2.2237,-2.229,-2.2339,-2.2359,0,0,-2.1798,-2.179,-2.1845,-2.1813,-2.1925,-2.1883,-2.2002,-2.2049,-2.2055,-2.2134,-2.2139,-2.222,-2.224,-2.2293,-2.2469,-2.2485,0,0,0,-2.1878,-2.1918,-2.1948,-2.1997,-2.2035,-2.207,-2.2099,-2.2116,-2.2184,-2.2096,-2.2253,-2.2265,-2.2296,-2.2319,-2.2333,-2.236,-2.2185,-2.2185,-2.2184,-2.2025,-2.2028,-2.212,-2.2135,-2.2182,-2.2211,-2.2249,-2.2277,-2.2266,-2.2303,-2.2327,-2.2434,-2.2462,-2.2472,-2.25,-2.2352,-2.2352,-2.2352,-2.2352,-2.2179,-2.2237,-2.2219,-2.2303,-2.2305,-2.2374,-2.2404,-2.2394,-2.2459,-2.2416,-2.2444,-2.2399,-2.2489,-2.2514,-2.2356,-2.2355,-2.2355,-2.2355,-2.2354,-2.2278,-2.2306,-2.2325,-2.2395,-2.2448,-2.2458,-2.2521,-2.252,-2.2519,-2.2546,-2.2572,-2.2571,-2.2571,-2.2558,-2.2559,-2.2559,-2.2559,-2.256,-2.256,-2.2372,-2.2392,-2.2446,-2.2493,-2.2523,-2.2563,-2.259,-2.262,-2.2652,-2.2647,-2.2647,-2.2632,-2.2497,-2.2464,-2.2566,-2.2565,-2.2564,-2.2563,-2.2563,-2.253,-2.2494,-2.2577,-2.2608,-2.2661,-2.2713,-2.271,-2.277,-2.2794,-2.2825,-2.2803,-2.2703,-2.2695,-2.2684,-2.2657,-2.2802,-2.2802,-2.2802,-2.2802,-2.2614,-2.2609,-2.2693,-2.2742,-2.2789,-2.2794,-2.2886,-2.2908,-2.2924,-2.2939,-2.2917,-2.288,-2.2869,-2.2867,-2.2852,-2.2827,-2.3012,-2.3013,-2.3013,-2.2712,-2.2711,-2.2791,-2.2807,-2.2848,-2.2883,-2.297,-2.3025,-2.3036,-2.3021,-2.2951,-2.2942,-2.2882,-2.2862,-2.2848,-2.2825,-2.2778,0,0]},{"header":{"parameterUnit":"m.s-1","parameterCategory":1,"la1":30.2992,"la2":30.254,"lo1":-89.0895,"lo2":-89.0443,"dy":0.0025,"dx":0.0025,"nx":19,"ny":19,"refTime":"2026-03-26T21:00:00:Z","depth":0,"parameterNumber":3,"parameterNumberName":"V-component_of_WINDS"},"data":[0,0,0,-8.5278,-8.5283,-8.55,-8.5501,-8.5788,-8.5791,0,0,0,0,0,0,0,0,0,0,0,-8.5225,-8.5227,-8.5278,-8.5284,-8.55,-8.5501,-8.5788,-8.5791,0,0,0,0,0,0,0,0,0,0,0,-8.5224,-8.5226,-8.523,-8.5285,-8.55,-8.5501,-8.5787,-8.5619,0,0,0,0,0,0,0,0,0,0,-8.5406,-8.5368,-8.5226,-8.523,-8.5286,-8.55,-8.5501,-8.5611,-8.5629,-8.5696,0,-8.5762,0,-8.5782,-8.5811,-8.5812,0,0,0,-8.5274,-8.5353,-8.5402,-8.523,-8.5288,-8.55,-8.54,-8.5621,-8.5642,-8.5721,-8.5766,-8.5776,-8.5786,-8.5813,-8.5815,-8.6241,-8.6243,0,0,-8.5262,-8.5268,-8.5388,-8.5417,-8.5389,-8.5393,-8.5407,-8.5634,-8.5681,-8.5767,-8.5783,-8.5791,-8.5815,-8.5818,-8.6238,-8.6241,0,0,0,-8.5234,-8.526,-8.5304,-8.5405,-8.5444,-8.5399,-8.5415,-8.5671,-8.5685,-8.5786,-8.5795,-8.5817,-8.5821,-8.6236,-8.6239,-8.6368,0,0,0,-8.5227,-8.5244,-8.5299,-8.5305,-8.544,-8.5561,-8.5448,-8.5669,-8.5695,-8.5793,-8.5817,-8.5824,-8.6233,-8.6238,-8.6359,-8.6427,0,0,0,-8.5207,-8.5241,-8.5277,-8.5305,-8.5399,-8.5557,-8.5584,-8.5675,-8.5701,-8.5813,-8.5825,-8.6231,-8.6237,-8.635,-8.6414,-8.6542,0,0,0,-8.5186,-8.5386,-8.5279,-8.5505,-8.5397,-8.5637,-8.5583,-8.5759,-8.5871,-8.5819,-8.6233,-8.6239,-8.6348,-8.6405,-8.6534,-8.6653,-8.6703,0,0,-8.5441,-8.5417,-8.5549,-8.546,-8.5721,-8.5603,-8.5881,-8.5974,-8.5976,-8.6151,-8.6161,-8.6362,-8.6413,-8.654,-8.6981,-8.7021,0,0,0,-8.5631,-8.5727,-8.5794,-8.5903,-8.5982,-8.6055,-8.6106,-8.614,-8.629,-8.6069,-8.6442,-8.6472,-8.6547,-8.6603,-8.6637,-8.6701,-8.6265,-8.6265,-8.6264,-8.6001,-8.5997,-8.6215,-8.6238,-8.6343,-8.6395,-8.6479,-8.6533,-8.6495,-8.6583,-8.6635,-8.6903,-8.697,-8.6996,-8.7062,-8.6697,-8.6697,-8.6698,-8.6698,-8.6374,-8.6509,-8.6456,-8.665,-8.6643,-8.6803,-8.6859,-8.6827,-8.6973,-8.6863,-8.6929,-8.681,-8.704,-8.7097,-8.6708,-8.6706,-8.6705,-8.6704,-8.6703,-8.6616,-8.668,-8.6722,-8.6879,-8.6999,-8.7012,-8.7157,-8.7143,-8.7131,-8.7196,-8.725,-8.7247,-8.7244,-8.7222,-8.7223,-8.7224,-8.7225,-8.7226,-8.7226,-8.6852,-8.6894,-8.702,-8.7122,-8.719,-8.7278,-8.7331,-8.7396,-8.7464,-8.7443,-8.7443,-8.7396,-8.7064,-8.6981,-8.7241,-8.7238,-8.7236,-8.7235,-8.7234,-8.7234,-8.7146,-8.734,-8.741,-8.7527,-8.7647,-8.7629,-8.7763,-8.7814,-8.7885,-8.7824,-8.7581,-8.7553,-8.7526,-8.7457,-8.7825,-8.7825,-8.7825,-8.7825,-8.7439,-8.7425,-8.7621,-8.7732,-8.7839,-8.7842,-8.8058,-8.81,-8.8129,-8.816,-8.8104,-8.8012,-8.7984,-8.7973,-8.7936,-8.7872,-8.8337,-8.8338,-8.8338,-8.7674,-8.767,-8.7859,-8.7891,-8.7981,-8.8058,-8.8261,-8.8387,-8.84,-8.8359,-8.8184,-8.8162,-8.8012,-8.7964,-8.7919,-8.7862,-8.7744,0,0]}]]